Weather History for Toronto City, ON

Change the Weather History Date:

Friday, July 26, 2013

  Actual Average Record
Temperature  
Mean Temperature 66 °F -  
Max Temperature 73 °F - - ()
Min Temperature 59 °F - - ()
Cooling Degree Days 1    
Growing Degree Days 16 (Base 50)    
Moisture  
Dew Point 53 °F    
Average Humidity 59    
Maximum Humidity 87    
Minimum Humidity 35    
Precipitation  
Precipitation 0.00 in - - ()
Sea Level Pressure  
Sea Level Pressure 30.09 in    
Wind  
Wind Speed - ()    
Max Wind Speed -    
Max Gust Speed -    
T = Trace of Precipitation, MM = Missing Value Source: Averaged Metar Reports

Daily Weather History Graph

Daily Weather History Graph

Search for Another Location

Airport:

Trip Planner

Search our weather history database for the weather conditions in past years. The results will help you decide how hot, cold, wet, or windy it might be!

Date:

Astronomy

Jul. 26, 2013 Rise Set
Actual Time 6:00 AM EDT 8:47 PM EDT
Civil Twilight 5:27 AM EDT 9:20 PM EDT
Nautical Twilight 4:44 AM EDT 10:02 PM EDT
Astronomical Twilight 3:56 AM EDT 10:50 PM EDT
Moon 10:48 PM EDT (7/26) 10:45 AM EDT (7/26)
Length of Visible Light 15h 53m
Length of Day
14h 46m
Waning Gibbous, 80% of the Moon is Illuminated
Jul 26
Waning Gibbous
Jul 29
Last Quarter
Aug 6
New
Aug 14
First Quarter
Aug 20
Full

Hourly Weather History & Observations

Time (EDT) Temp. Dew Point Humidity Pressure Visibility Wind Dir Wind Speed Gust Speed Precip Events Conditions
12:00 AM 66.2 °F 55.6 °F 69% 30.14 in - North - - N/A   Unknown
1:00 AM 65.1 °F 56.3 °F 73% 30.12 in - North - - N/A   Unknown
2:00 AM 63 °F 56 °F 72% 30.12 in - Calm Calm - -  
2:00 AM 63.1 °F 56.1 °F 78% 30.12 in - North - - N/A   Unknown
3:00 AM 62.2 °F 56.8 °F 82% 30.11 in - North - - N/A   Unknown
4:00 AM 60.8 °F 55.8 °F 83% 30.10 in - North - - N/A   Unknown
5:00 AM 60.8 °F 55.8 °F 83% 30.11 in - North - - N/A   Unknown
6:00 AM 59.5 °F 55.6 °F 87% 30.12 in - North - - N/A   Unknown
7:00 AM 61.0 °F 56.1 °F 84% 30.12 in - North - - N/A   Unknown
8:00 AM 67 °F 54 °F 53% 30.12 in - Calm Calm - -  
8:00 AM 67.3 °F 53.8 °F 62% 30.12 in - North - - N/A   Unknown
9:00 AM 69.3 °F 55.0 °F 60% 30.13 in - North - - N/A   Unknown
10:00 AM 71.2 °F 55.9 °F 58% 30.13 in - North - - N/A   Unknown
11:00 AM 70.7 °F 56.1 °F 60% 30.13 in - North - - N/A   Unknown
12:00 PM 71.2 °F 55.2 °F 57% 30.12 in - North - - N/A   Unknown
1:00 PM 71.6 °F 53.2 °F 52% 30.11 in - North - - N/A   Unknown
2:00 PM 72 °F 51 °F 37% 30.09 in - Calm Calm - -  
2:00 PM 71.8 °F 51.1 °F 48% 30.09 in - North - - N/A   Unknown
3:00 PM 73.0 °F 43.5 °F 35% 30.08 in - North - - N/A   Unknown
4:00 PM 72.7 °F 48.2 °F 42% 30.06 in - North - - N/A   Unknown
5:00 PM 72.7 °F 49.5 °F 44% 30.05 in - North - - N/A   Unknown
6:00 PM 72.0 °F 50.2 °F 46% 30.04 in - North - - N/A   Unknown
7:00 PM 70.7 °F 47.5 °F 44% 30.02 in - North - - N/A   Unknown
8:00 PM 70 °F 48 °F 35% 30.01 in - Calm Calm - -  
8:00 PM 70.2 °F 48.2 °F 46% 30.01 in - North - - N/A   Unknown
9:00 PM 69.6 °F 51.4 °F 52% 30.01 in - North - - N/A   Unknown
10:00 PM 69.1 °F 53.1 °F 57% 30.01 in - North - - N/A   Unknown
11:00 PM 69.1 °F 56.7 °F 65% 30.00 in - North - - N/A   Unknown